Overview Statistics Trail Chart Weather Telemetry Raw packets
 

This is the latest recevied weather packets stored in our database for station/object VE3CGR-6. If no packets are shown the sender has not sent any weather packets the latest 10 day(s).

<< 53 54 55 56 57 58 >>
Time Temp. Humidity Pressure Rain* Wind** Luminosity Snow
1787796617 18.89° C 90% 1013.2 hPa 0 mm - - -
1787796017 18.89° C 89% 1013.3 hPa 0 mm - - -
1787795417 19.44° C 89% 1013.3 hPa 0 mm - - -
1787794817 19.44° C 89% 1013.4 hPa 0 mm - - -
1787794217 19.44° C 89% 1013.5 hPa 0 mm - - -
1787793617 19.44° C 88% 1013.8 hPa 0 mm - - -
1787793017 19.44° C 88% 1013.9 hPa 0 mm - - -
1787792417 19.44° C 87% 1013.8 hPa 0 mm - - -
1787791817 19.44° C 87% 1013.8 hPa 0 mm - - -
1787791217 20° C 86% 1013.7 hPa 0 mm - - -
1787790617 20° C 86% 1013.7 hPa 0 mm - - -
1787790017 20° C 85% 1013.7 hPa 0 mm - - -
1787789417 20.56° C 84% 1013.7 hPa 0 mm - - -
1787788817 20.56° C 84% 1013.4 hPa 0 mm - - -
1787788217 21.11° C 83% 1013.4 hPa 0 mm - - -
1787787617 21.11° C 82% 1013.4 hPa 0 mm - - -
1787787018 21.67° C 80% 1013.4 hPa 0 mm - - -
1787786417 22.22° C 79% 1013.4 hPa 0 mm - - -
1787785817 22.22° C 77% 1013.3 hPa 0 mm - - -
1787785217 22.78° C 75% 1013.4 hPa 0 mm - - -
1787784617 23.33° C 74% 1013.3 hPa 0 mm - - -
1787784017 23.89° C 72% 1013.5 hPa 0 mm - - -
1787783417 23.89° C 73% 1013.8 hPa 0 mm - - -
1787782817 24.44° C 72% 1014 hPa 0 mm - - -
1787782217 23.89° C 73% 1014.1 hPa 0 mm - - -

* Rain latest hour (hover to see other rain measurements)
** Current wind speed in m/s (hover to see current wind gust speed)